sat.trackr.live / text

‹ back to catalog

STARLINK-4486

NORAD 53540 · 2022-101P

PAYLOAD ACTIVE UNKNOWN

§ Identity

Operator
Country
US
Launch date
2022-08-19
Launch site
AFETR
Launch vehicle
Mass (kg)
RCS (m²)

Purposes: comms

External: N2YO · Heavens-Above · Gunter

§ Orbital elements

Epoch: 2026-09-20T00:27:59.840640Z

Period
95.44 min
Inclination
53.1599°
Eccentricity
0.0001281
Mean motion
15.08830380 rev/d
Perigee alt
538.9 km
Apogee alt
540.7 km
Semi-major
6,917.9 km
B*
5.1141e-6
RAAN
271.4375°
Arg perigee
82.3070°
Mean anomaly
277.8067°
Rev number
22,632

§ Raw data

STARLINK-44861 53540U 22101P   26263.01944260 -.00000207  00000+0  51141-5 0  99942 53540  53.1599 271.4375 0001281  82.3070 277.8067 15.08830380226320

JSON: /api/v1/satellites/53540 · /tle

For live sub-satellite position, see the globe view (requires WebGL).

§ Visibility from observer

Set your observer location to see the next 7 days of passes ≥ 10°. The values pass through the URL so the page stays shareable.

No JS? Fill the form by hand. The geolocation button needs JavaScript.